Location: Cootamundra
(34.6417°S, 148.0250°E)
Time: 09:22:33
(UTC+10:00)

Hubble Space Telescope - Visible Passes

Search period start: 26 September 2022 00:00
Search period end: 06 October 2022 01:00
Orbit: 531 x 535 km, 28.5° (Epoch: 25 September)

Date Brightness Start Highest point End Pass type
(mag) Time Alt. Az. Time Alt. Az. Time Alt. Az.
27 Sep 3.3 05:01:25 10° N 05:03:05 12° NNE 05:04:44 10° NE visible
28 Sep 3.2 04:48:26 10° NNW 04:50:46 15° NNE 04:53:04 10° NE visible
29 Sep 2.9 04:36:03 11° NNW 04:38:26 17° NNE 04:41:11 10° ENE visible
30 Sep 2.7 04:24:32 16° NNW 04:26:07 20° NNE 04:29:11 10° ENE visible
01 Oct 2.4 04:12:59 21° N 04:13:49 23° NNE 04:17:06 10° ENE visible
02 Oct 2.2 05:01:23 25° N 05:01:30 25° NNE 05:04:57 10° ENE visible
03 Oct 2.2 04:49:47 27° NNE 04:49:47 27° NNE 04:52:46 10° ENE visible
04 Oct 2.4 04:38:09 25° NE 04:38:09 25° NE 04:40:34 10° ENE visible
04 Oct 1.8 06:13:51 10° WNW 06:17:37 33° N 06:21:22 10° ENE visible
05 Oct 2.8 04:26:32 21° NE 04:26:32 21° NE 04:28:19 10° ENE visible
05 Oct 1.9 06:01:46 11° WNW 06:05:19 32° N 06:09:01 10° ENE visible
